This demonstration page uses our WeatherBlox Daily Observations layout. Learn more.

Left ArrowRight Arrow

39.51506, -84.39828

Hourly Observations for June 3, 2022

Temp ( °F °C ) Dew Point ( °F °C ) Humidity (%) Winds ( mph kmh ) Pressure ( in mb ) Visibility ( mi km ) Precip ( " mm )
12:15 am 00:15 Mostly Cloudy 61 16 60 15.8 99 99 Calm 29.91 1013 10 16 0.00 0.00
12:35 am 00:35 Partly Cloudy 60 15.6 60 15.3 98 98 Calm 29.92 1013 10 16 0.00 0.00
12:55 am 00:55 Partly Cloudy 59 15 59 15 100 100 NNE 3 6 29.92 1013 10 16 0.00 0.00
1:15 am 01:15 Partly Cloudy 59 15 N/A N/A Calm 29.92 1013 10 16 0.00 0.00
1:35 am 01:35 Mostly Cloudy 60 15.7 58 14.7 94 94 N 5 7 29.91 1013 10 16 0.00 0.00
1:55 am 01:55 Partly Cloudy 62 16.4 53 11.9 75 75 NNW 7 11 29.91 1013 10 16 0.00 0.00
2:15 am 02:15 Mostly Cloudy 61 16.1 53 11.7 75 75 N 7 11 29.91 1013 10 16 0.00 0.00
2:35 am 02:35 Partly Cloudy 61 15.9 52 11.2 74 74 N 6 9 29.91 1013 10 16 0.00 0.00
2:55 am 02:55 Clear 61 15.9 52 10.9 72 72 N 5 7 29.91 1013 10 16 0.00 0.00
3:15 am 03:15 Clear 60 15.3 52 11.2 77 77 N 3 6 29.92 1013 10 16 0.00 0.00
3:35 am 03:35 Clear 58 14.5 51 10.7 78 78 NNW 8 13 29.92 1013 10 16 0.00 0.00
3:55 am 03:55 Clear 57 14 52 11.3 84 84 N 5 7 29.92 1013 10 16 0.00 0.00
4:15 am 04:15 Clear 55 12.7 53 11.8 94 94 Calm 29.92 1013 10 16 0.00 0.00
4:35 am 04:35 Clear 54 12.2 54 12 99 99 N 3 6 29.93 1014 10 16 0.00 0.00
4:55 am 04:55 Clear 55 12.6 54 12.1 97 97 Calm 29.93 1014 10 16 0.00 0.00
5:15 am 05:15 Partly Cloudy 55 12.5 53 11.9 96 96 Calm 29.93 1014 10 16 0.00 0.00
5:35 am 05:35 Mostly Cloudy 54 12.2 53 11.8 97 97 N 3 6 29.94 1014 10 16 0.00 0.00
5:55 am 05:55 Cloudy 54 12.4 53 11.8 96 96 NNE 3 6 29.95 1014 10 16 0.00 0.00
6:15 am 06:15 Mostly Cloudy 53 11.6 53 11.4 99 99 Calm 29.95 1014 10 16 0.00 0.00
6:35 am 06:35 Mostly Cloudy 54 12 54 12 100 100 Calm 29.96 1015 10 16 0.01 0.25
6:55 am 06:55 Mostly Cloudy 53 11.8 53 11.7 99 99 Calm 29.96 1015 10 16 0.01 0.25
7:15 am 07:15 Partly Cloudy 55 13 54 12 94 94 Calm 29.97 1015 10 16 0.00 0.00
7:35 am 07:35 Sunny 56 13.4 56 13.2 99 99 Calm 29.97 1015 10 16 0.00 0.00
7:55 am 07:55 Sunny 58 14.5 57 13.9 96 96 Calm 29.97 1015 10 16 0.00 0.00
8:15 am 08:15 Sunny 60 15.8 55 13 84 84 Calm 29.97 1015 10 16 0.00 0.00
8:35 am 08:35 Sunny 62 16.9 53 11.9 73 73 Calm 29.97 1015 10 16 0.00 0.00
8:55 am 08:55 Sunny 65 18.1 53 11.9 67 67 Calm 29.97 1015 10 16 0.00 0.00
9:15 am 09:15 Sunny 66 19 51 10.5 58 58 Calm 29.97 1015 10 16 0.00 0.00
9:35 am 09:35 Sunny 68 20 51 10.4 54 54 Calm 29.96 1015 10 16 0.00 0.00
9:55 am 09:55 Sunny 69 20.6 49 9.4 49 49 Calm 29.96 1015 10 16 0.00 0.00
10:15 am 10:15 Sunny 71 21.4 49 9.6 47 47 SSE 3 6 29.96 1015 10 16 0.00 0.00
10:35 am 10:35 Sunny 72 22.1 48 8.9 43 43 W 3 6 29.96 1015 10 16 0.00 0.00
10:55 am 10:55 Sunny 73 22.9 47 8.2 39 39 E 3 6 29.96 1014 10 16 0.00 0.00
11:15 am 11:15 Sunny 74 23.5 43 6.1 33 33 NNW 9 15 29.96 1014 10 16 0.00 0.00
11:35 am 11:35 Sunny 74 23.4 37 2.8 26 26 W 3 6 29.96 1014 10 16 0.00 0.00
11:55 am 11:55 Sunny 74 23.6 38 3.2 26 26 NNW 7 11 29.96 1014 10 16 0.00 0.00
12:15 pm 12:15 Sunny 75 23.7 40 4.7 29 29 Calm 29.96 1014 10 16 0.00 0.00
12:35 pm 12:35 Sunny 76 24.2 42 5.5 30 30 WSW 5 7 29.95 1014 10 16 0.00 0.00
12:55 pm 12:55 Sunny 76 24.3 41 5.1 29 29 NW 6 9 29.95 1014 10 16 0.00 0.00
1:15 pm 13:15 Sunny 76 24.6 42 5.8 30 30 NW 5 7 29.95 1014 10 16 0.00 0.00
1:35 pm 13:35 Sunny 77 24.8 42 5.6 29 29 WSW 7 11 29.95 1014 10 16 0.00 0.00
1:55 pm 13:55 Sunny 77 24.9 42 5.8 29 29 WNW 5 7 29.94 1014 10 16 0.01 0.25
2:15 pm 14:15 Sunny 78 25.5 44 6.5 30 30 WSW 6 9 29.94 1014 10 16 0.00 0.00
2:35 pm 14:35 Sunny 77 25.2 42 5.7 29 29 W 6 9 29.94 1014 10 16 0.00 0.00
2:55 pm 14:55 Sunny 77 25.1 40 4.5 26 26 W 3 6 29.93 1014 10 16 0.00 0.00
3:15 pm 15:15 Sunny 78 25.7 42 5.7 28 28 W 8 13 29.93 1014 10 16 0.00 0.00
3:35 pm 15:35 Sunny 79 26 41 5.2 26 26 Calm 29.92 1013 10 16 0.00 0.00
3:55 pm 15:55 Sunny 78 25.8 40 4.7 26 26 WSW 5 7 29.92 1013 10 16 0.00 0.00
4:15 pm 16:15 Partly Cloudy 78 25.8 42 5.4 27 27 SSW 6 9 29.92 1013 10 16 0.00 0.00
4:35 pm 16:35 Partly Cloudy 78 25.7 42 5.6 28 28 WNW 3 6 29.92 1013 10 16 0.00 0.00
4:55 pm 16:55 Partly Cloudy 79 26.1 42 5.5 27 27 SW 6 9 29.91 1013 10 16 0.00 0.00
5:15 pm 17:15 Partly Cloudy 78 25.3 37 3 24 24 Calm 29.91 1013 10 16 0.00 0.00
5:35 pm 17:35 Mostly Cloudy 78 25.5 45 7.2 31 31 SW 9 15 29.91 1013 10 16 0.00 0.00
5:55 pm 17:55 Partly Cloudy 79 26 44 6.9 30 30 S 7 11 29.90 1013 10 16 0.00 0.00
6:15 pm 18:15 Sunny 78 25.7 45 7 30 30 SSW 9 15 29.89 1012 10 16 0.00 0.00
6:35 pm 18:35 Sunny 78 25.6 45 7.3 31 31 SSW 9 15 29.89 1012 10 16 0.00 0.00
6:55 pm 18:55 Sunny 78 25.4 45 7.1 31 31 SW 9 15 29.89 1012 10 16 0.00 0.00
7:15 pm 19:15 Partly Cloudy 76 24.6 47 8.4 36 36 SSW 7 11 29.89 1012 10 16 0.00 0.00
7:35 pm 19:35 Partly Cloudy 76 24.5 47 8.6 36 36 SSW 8 13 29.89 1012 10 16 0.00 0.00
7:55 pm 19:55 Partly Cloudy 73 22.8 48 9 41 41 SW 7 11 29.90 1012 10 16 0.00 0.00
8:15 pm 20:15 Sunny 72 22.1 51 10.6 48 48 SW 5 7 29.90 1013 10 16 0.00 0.00
8:35 pm 20:35 Sunny 70 20.9 52 11 53 53 SW 6 9 29.90 1013 10 16 0.00 0.00
8:55 pm 20:55 Sunny 68 19.8 51 10.4 55 55 SW 6 9 29.91 1013 10 16 0.00 0.00
9:15 pm 21:15 Clear 66 18.7 51 10.6 59 59 SW 6 9 29.92 1013 10 16 0.00 0.00
9:35 pm 21:35 Clear 65 18.2 51 10.4 61 61 SW 6 9 29.92 1013 10 16 0.00 0.00
9:55 pm 21:55 Clear 64 17.9 51 10.4 62 62 SW 5 7 29.92 1013 10 16 0.00 0.00
10:15 pm 22:15 Clear 63 17.1 53 11.4 69 69 SW 5 7 29.93 1014 10 16 0.00 0.00
10:35 pm 22:35 Clear 62 16.4 53 11.6 73 73 SW 3 6 29.93 1014 10 16 0.00 0.00
10:55 pm 22:55 Clear 62 16.6 53 11.8 73 73 Calm 29.94 1014 10 16 0.00 0.00
11:15 pm 23:15 Clear 60 15.5 56 13.1 86 86 Calm 29.95 1014 10 16 0.00 0.00
11:35 pm 23:35 Clear 58 14.5 55 13 91 91 Calm 29.95 1014 10 16 0.00 0.00
11:55 pm 23:55 Clear 58 14.3 56 13.2 93 93 Calm 29.95 1014 10 16 0.00 0.00

Powered by AerisWeather